Chicago Executive, IL

3:03 AM CDT on May 25, 2017 (GMT -0500)
Chicago Executive

Weather History for KPWK - December, 2012

Change the Weather History Date:

Wednesday, December 26, 2012

  Actual Average Record
Temperature  
Mean Temperature 30 °F 25 °F  
Max Temperature 33 °F 32 °F 53 °F (2008)
Min Temperature 27 °F 18 °F 2 °F (2000)
Degree Days  
Heating Degree Days 35 40  
Month to date heating degree days 715 947  
Since 1 July heating degree days 2034 2217  
Cooling Degree Days 0 0  
Month to date cooling degree days 0 0  
Year to date cooling degree days 1228 789  
Moisture  
Dew Point 22 °F    
Average Humidity 70    
Maximum Humidity 76    
Minimum Humidity 64    
Precipitation  
Precipitation T in 0.05 in 0.68 in (2008)
Month to date precipitation 2.21 1.57  
Year to date precipitation 22.03 33.09  
Sea Level Pressure  
Sea Level Pressure 30.10 in    
Wind  
Wind Speed 14 mph (NNE)    
Max Wind Speed 23 mph    
Max Gust Speed 32 mph    
Visibility 10 miles    
Events      
T = Trace of Precipitation, MM = Missing Value Source: NWS Daily Summary

Daily Weather History Graph

Daily Weather History Graph

Search for Another Location

Airport or City:

Trip Planner

Search our weather history database for the weather conditions in past years. The results will help you decide how hot, cold, wet, or windy it might be!

Date:

Astronomy

Dec. 26, 2012 Rise Set
Actual Time 7:18 AM CST 4:26 PM CST
Civil Twilight 6:47 AM CST 4:57 PM CST
Nautical Twilight 6:11 AM CST 5:33 PM CST
Astronomical Twilight 5:37 AM CST 6:07 PM CST
Moon 3:19 PM CST (12/26) 5:41 AM CST (12/26)
Length of Visible Light 10h 10m
Length of Day
9h 07m
Waxing Gibbous, 97% of the Moon is Illuminated
Dec 26
Waxing Gibbous
Dec 28
Full
Jan 4
Last Quarter
Jan 11
New
Jan 18
First Quarter

Hourly Weather History & Observations

Time (CST) Temp. Windchill Dew Point Humidity Pressure Visibility Wind Dir Wind Speed Gust Speed Precip Events Conditions
12:52 AM 32.0 °F 24.2 °F 21.0 °F 64% 30.23 in 10.0 mi ENE 9.2 mph 23.0 mph N/A   Mostly Cloudy
1:52 AM 32.0 °F 21.6 °F 21.0 °F 64% 30.22 in 10.0 mi NE 15.0 mph 20.7 mph N/A   Overcast
2:52 AM 30.9 °F 21.2 °F 21.0 °F 67% 30.17 in 10.0 mi NE 12.7 mph 26.5 mph N/A   Overcast
3:52 AM 30.9 °F 20.7 °F 21.0 °F 67% 30.17 in 10.0 mi NE 13.8 mph 23.0 mph N/A   Overcast
4:52 AM 30.9 °F 20.7 °F 24.1 °F 76% 30.14 in 10.0 mi NE 13.8 mph - N/A   Overcast
5:52 AM 32.0 °F 22.1 °F 25.0 °F 75% 30.14 in 10.0 mi NE 13.8 mph 21.9 mph N/A   Overcast
6:44 AM 32.0 °F 21.6 °F 24.8 °F 75% 30.09 in 10.0 mi NE 15.0 mph 21.9 mph N/A   Overcast
6:52 AM 32.0 °F 20.1 °F 24.1 °F 73% 30.11 in 10.0 mi NE 19.6 mph 27.6 mph N/A   Overcast
7:13 AM 32.0 °F 22.1 °F 24.8 °F 75% 30.08 in 10.0 mi NE 13.8 mph 23.0 mph N/A   Overcast
7:52 AM 32.0 °F 22.1 °F 24.1 °F 73% 30.11 in 10.0 mi NE 13.8 mph 24.2 mph N/A   Overcast
8:52 AM 32.0 °F 21.2 °F 23.0 °F 69% 30.10 in 9.0 mi NE 16.1 mph 27.6 mph N/A   Overcast
9:52 AM 32.0 °F 21.6 °F 21.9 °F 66% 30.10 in 10.0 mi NE 15.0 mph 27.6 mph N/A   Overcast
10:52 AM 32.0 °F 21.2 °F 23.0 °F 69% 30.08 in 10.0 mi NNE 16.1 mph 28.8 mph N/A   Overcast
11:52 AM 32.0 °F 20.8 °F 23.0 °F 69% 30.06 in 10.0 mi NNE 17.3 mph 29.9 mph N/A   Overcast
12:52 PM 32.0 °F 22.5 °F 23.0 °F 69% 30.04 in 10.0 mi NNE 12.7 mph 23.0 mph 0.00 in   Overcast
1:28 PM 32.0 °F 20.5 °F 23.0 °F 69% 30.01 in 10.0 mi NNE 18.4 mph 31.1 mph 0.00 in   Overcast
1:42 PM 32.0 °F 20.5 °F 23.0 °F 69% 30.01 in 10.0 mi NNE 18.4 mph 29.9 mph 0.00 in   Overcast
1:52 PM 32.0 °F 20.8 °F 23.0 °F 69% 30.03 in 10.0 mi NNE 17.3 mph 27.6 mph 0.00 in   Overcast
3:52 PM 32.0 °F 21.6 °F 21.9 °F 66% 30.05 in 10.0 mi NNE 15.0 mph 27.6 mph N/A   Overcast
4:52 PM 30.9 °F 22.2 °F 21.9 °F 69% 30.09 in 10.0 mi North 10.4 mph 23.0 mph N/A   Overcast
5:52 PM 30.9 °F 21.7 °F 21.9 °F 69% 30.09 in 10.0 mi NNE 11.5 mph 26.5 mph N/A   Overcast
6:52 PM 32.0 °F 23.0 °F 21.9 °F 66% 30.09 in 10.0 mi North 11.5 mph - N/A   Overcast
7:10 PM 30.2 °F 18.9 °F 21.2 °F 69% 30.07 in 10.0 mi NNW 16.1 mph 23.0 mph N/A   Overcast
7:19 PM 30.2 °F 19.8 °F 21.2 °F 69% 30.07 in 10.0 mi NNW 13.8 mph 20.7 mph N/A   Overcast
7:52 PM 28.9 °F 18.2 °F 21.9 °F 75% 30.10 in 10.0 mi NNW 13.8 mph 20.7 mph N/A   Overcast
8:02 PM 28.4 °F 19.7 °F 21.2 °F 74% 30.08 in 10.0 mi North 9.2 mph - N/A   Overcast
8:37 PM 28.4 °F 19.1 °F 21.2 °F 74% 30.08 in 10.0 mi NNW 10.4 mph 18.4 mph N/A   Overcast
8:52 PM 28.9 °F 18.2 °F 21.9 °F 75% 30.10 in 10.0 mi NNW 13.8 mph 19.6 mph N/A   Overcast
9:52 PM 28.0 °F 17.0 °F 21.0 °F 75% 30.12 in 10.0 mi NNW 13.8 mph 19.6 mph N/A   Overcast
10:43 PM 28.4 °F 18.5 °F 19.4 °F 69% 30.09 in 10.0 mi NNW 11.5 mph - N/A   Overcast
10:52 PM 28.0 °F 18.1 °F 19.9 °F 72% 30.11 in 10.0 mi NNW 11.5 mph 19.6 mph N/A   Overcast
11:52 PM 27.0 °F 16.7 °F 19.9 °F 75% 30.11 in 10.0 mi NNW 11.5 mph - N/A   Overcast